AAL202 KCLT-KLAX

Flight info

Callsign AAL202
Flight time N/A
Altitude 28000
Route BOBZY5 BNA LIT J14 IRW J6 DRK J231 HIPPI GABBL HLYWD1
Aircraft A321/M-SDE3FGHIRWY/LB1

Departure

Time 2026-05-04 02:07
Airport Charlotte Douglas International Airport (KCLT)

Arrival

Time N/A
Airport Los Angeles International Airport (KLAX)
Time Latitude Longitude Altitude Speed Heading
2026-05-04 01:39 35.21861 -80.94178 728 ft 0 kts 253°
2026-05-04 01:54 35.21861 -80.94176 728 ft 1 kts 253°
2026-05-04 01:54 35.21865 -80.94163 729 ft 0 kts 253°
2026-05-04 01:54 35.21870 -80.94147 729 ft 2 kts 236°
2026-05-04 01:55 35.21880 -80.94132 729 ft 2 kts 220°
2026-05-04 01:55 35.21893 -80.94122 730 ft 2 kts 203°
2026-05-04 01:55 35.21908 -80.94116 730 ft 2 kts 186°
2026-05-04 01:55 35.21924 -80.94117 730 ft 2 kts 169°
2026-05-04 01:56 35.21935 -80.94120 730 ft 0 kts 157°
2026-05-04 01:56 35.21941 -80.94124 730 ft 0 kts 154°
2026-05-04 01:58 35.21935 -80.94121 730 ft 6 kts 154°
2026-05-04 01:59 35.21886 -80.94093 730 ft 7 kts 159°
2026-05-04 01:59 35.21829 -80.94083 729 ft 8 kts 176°
2026-05-04 01:59 35.21762 -80.94088 728 ft 10 kts 193°
2026-05-04 01:59 35.21691 -80.94126 726 ft 12 kts 218°
2026-05-04 02:00 35.21668 -80.94149 725 ft 0 kts 221°
2026-05-04 02:00 35.21668 -80.94150 725 ft 1 kts 224°
2026-05-04 02:00 35.21659 -80.94207 724 ft 10 kts 260°
2026-05-04 02:01 35.21657 -80.94332 722 ft 15 kts 262°
2026-05-04 02:01 35.21608 -80.94457 720 ft 16 kts 249°
2026-05-04 02:01 35.21586 -80.94602 718 ft 16 kts 265°
2026-05-04 02:01 35.21578 -80.94742 718 ft 15 kts 266°
2026-05-04 02:02 35.21575 -80.94870 719 ft 12 kts 281°
2026-05-04 02:02 35.21604 -80.94960 720 ft 10 kts 282°
2026-05-04 02:02 35.21650 -80.95014 721 ft 8 kts 344°
2026-05-04 02:02 35.21712 -80.95027 723 ft 11 kts 355°
2026-05-04 02:03 35.21794 -80.95034 725 ft 10 kts 356°
2026-05-04 02:03 35.21880 -80.95041 726 ft 14 kts 356°
2026-05-04 02:03 35.21981 -80.95051 729 ft 12 kts 355°
2026-05-04 02:03 35.22066 -80.95059 731 ft 10 kts 356°
2026-05-04 02:04 35.22142 -80.95065 732 ft 9 kts 356°
2026-05-04 02:04 35.22214 -80.95071 734 ft 11 kts 356°
2026-05-04 02:04 35.22294 -80.95077 735 ft 10 kts 356°
2026-05-04 02:04 35.22393 -80.95086 737 ft 13 kts 355°
2026-05-04 02:05 35.22490 -80.95094 739 ft 12 kts 356°
2026-05-04 02:05 35.22575 -80.95101 740 ft 11 kts 355°
2026-05-04 02:05 35.22652 -80.95109 741 ft 10 kts 354°
2026-05-04 02:05 35.22719 -80.95134 741 ft 9 kts 314°
2026-05-04 02:06 35.22731 -80.95217 742 ft 9 kts 266°
2026-05-04 02:06 35.22702 -80.95293 742 ft 10 kts 218°
2026-05-04 02:06 35.22618 -80.95303 741 ft 25 kts 176°
2026-05-04 02:06 35.22148 -80.95265 735 ft 104 kts 175°
2026-05-04 02:07 35.21180 -80.95177 715 ft 169 kts 176°
2026-05-04 02:07 35.19879 -80.95065 1255 ft 180 kts 177°
2026-05-04 02:07 35.18568 -80.94927 2145 ft 179 kts 177°
2026-05-04 02:07 35.17259 -80.95158 2692 ft 192 kts 211°
2026-05-04 02:08 35.16455 -80.96530 3054 ft 200 kts 258°
2026-05-04 02:08 35.16613 -80.98361 3363 ft 215 kts 280°
2026-05-04 02:08 35.16900 -81.00296 3572 ft 233 kts 276°
2026-05-04 02:08 35.17124 -81.02498 3908 ft 250 kts 275°
2026-05-04 02:09 35.17321 -81.04792 4420 ft 258 kts 275°
2026-05-04 02:09 35.17511 -81.07149 5122 ft 260 kts 275°
2026-05-04 02:09 35.17696 -81.09519 5828 ft 261 kts 276°
2026-05-04 02:09 35.17878 -81.11866 6511 ft 262 kts 276°
2026-05-04 02:10 35.18063 -81.14273 7197 ft 264 kts 276°
2026-05-04 02:10 35.18241 -81.16613 7844 ft 265 kts 277°
2026-05-04 02:10 35.18423 -81.19012 8478 ft 267 kts 277°
2026-05-04 02:10 35.18598 -81.21327 9081 ft 269 kts 278°
2026-05-04 02:11 35.18785 -81.23818 9717 ft 270 kts 278°
2026-05-04 02:11 35.18970 -81.26275 10285 ft 273 kts 278°
2026-05-04 02:11 35.19163 -81.28796 10580 ft 286 kts 278°
2026-05-04 02:11 35.19354 -81.31384 10850 ft 300 kts 277°
2026-05-04 02:12 35.19436 -81.33999 11083 ft 314 kts 272°
2026-05-04 02:12 35.19378 -81.36923 11341 ft 328 kts 271°
2026-05-04 02:12 35.19294 -81.39940 11627 ft 339 kts 271°
2026-05-04 02:12 35.19208 -81.42855 12121 ft 342 kts 270°
2026-05-04 02:13 35.19118 -81.45956 12674 ft 344 kts 270°
2026-05-04 02:13 35.19024 -81.49228 13206 ft 347 kts 270°
2026-05-04 02:13 35.18934 -81.52361 13723 ft 348 kts 270°
2026-05-04 02:13 35.18835 -81.55534 14262 ft 350 kts 270°
2026-05-04 02:14 35.18720 -81.58794 14808 ft 351 kts 270°
2026-05-04 02:14 35.18606 -81.62030 15328 ft 353 kts 270°
2026-05-04 02:14 35.18506 -81.65334 15836 ft 355 kts 270°
2026-05-04 02:14 35.18444 -81.68401 16324 ft 357 kts 270°
2026-05-04 02:15 35.18386 -81.71491 16756 ft 359 kts 270°
2026-05-04 02:15 35.18324 -81.74735 17234 ft 362 kts 270°
2026-05-04 02:15 35.18261 -81.77927 17714 ft 363 kts 270°
2026-05-04 02:15 35.18194 -81.81186 18169 ft 365 kts 270°
2026-05-04 02:16 35.18127 -81.84444 18608 ft 367 kts 270°
2026-05-04 02:16 35.18059 -81.87657 19036 ft 369 kts 270°
2026-05-04 02:16 35.17993 -81.90784 19426 ft 370 kts 270°
2026-05-04 02:16 35.17918 -81.94189 19854 ft 372 kts 269°
2026-05-04 02:17 35.17842 -81.97604 20287 ft 373 kts 270°
2026-05-04 02:17 35.17763 -82.01020 20689 ft 375 kts 270°
2026-05-04 02:17 35.17686 -82.04449 21061 ft 377 kts 270°
2026-05-04 02:17 35.17610 -82.07699 21437 ft 378 kts 269°
2026-05-04 02:18 35.17529 -82.11142 21841 ft 379 kts 269°
2026-05-04 02:18 35.17451 -82.14444 22183 ft 380 kts 269°
2026-05-04 02:18 35.17413 -82.17758 22514 ft 382 kts 272°
2026-05-04 02:18 35.17637 -82.21223 22853 ft 383 kts 277°
2026-05-04 02:19 35.18144 -82.24582 23165 ft 385 kts 283°
2026-05-04 02:19 35.18853 -82.27795 23491 ft 386 kts 285°
2026-05-04 02:19 35.19626 -82.31074 23816 ft 387 kts 285°
2026-05-04 02:19 35.20408 -82.34374 24105 ft 389 kts 285°
2026-05-04 02:20 35.21188 -82.37663 24394 ft 391 kts 285°
2026-05-04 02:20 35.21984 -82.41032 24671 ft 393 kts 285°
2026-05-04 02:20 35.22745 -82.44257 24928 ft 395 kts 285°
2026-05-04 02:20 35.23517 -82.47532 25226 ft 395 kts 285°
2026-05-04 02:21 35.24332 -82.50997 25507 ft 396 kts 285°
2026-05-04 02:21 35.25115 -82.54339 25759 ft 398 kts 285°
2026-05-04 02:21 35.25894 -82.57669 25977 ft 400 kts 285°
2026-05-04 02:21 35.26681 -82.61026 26084 ft 405 kts 285°
2026-05-04 02:22 35.27493 -82.64509 26188 ft 410 kts 285°
2026-05-04 02:22 35.28306 -82.67999 26299 ft 414 kts 285°
2026-05-04 02:22 35.29108 -82.71439 26479 ft 417 kts 285°
2026-05-04 02:22 35.29917 -82.74920 26693 ft 418 kts 285°
2026-05-04 02:23 35.30762 -82.78556 26977 ft 419 kts 285°
2026-05-04 02:23 35.31600 -82.82175 27333 ft 417 kts 285°
2026-05-04 02:23 35.32400 -82.85626 27658 ft 416 kts 285°
2026-05-04 02:23 35.33191 -82.89046 27945 ft 415 kts 285°
2026-05-04 02:24 35.34021 -82.92648 28255 ft 414 kts 285°
2026-05-04 02:24 35.34894 -82.96431 28590 ft 412 kts 285°
2026-05-04 02:24 35.35714 -82.99991 28905 ft 411 kts 285°
2026-05-04 02:24 35.36535 -83.03567 29197 ft 410 kts 285°
2026-05-04 02:25 35.37350 -83.07115 29466 ft 409 kts 285°
2026-05-04 02:25 35.38144 -83.10583 29746 ft 408 kts 285°
2026-05-04 02:25 35.38944 -83.14079 30038 ft 407 kts 285°
2026-05-04 02:25 35.39740 -83.17571 30306 ft 406 kts 285°
2026-05-04 02:26 35.40533 -83.21047 30554 ft 405 kts 285°
2026-05-04 02:26 35.41319 -83.24501 30820 ft 404 kts 285°
2026-05-04 02:26 35.42103 -83.27955 31060 ft 403 kts 285°
2026-05-04 02:26 35.42903 -83.31483 31301 ft 402 kts 285°
2026-05-04 02:27 35.43657 -83.34817 31519 ft 402 kts 285°
2026-05-04 02:27 35.44458 -83.38373 31745 ft 401 kts 285°
2026-05-04 02:27 35.45259 -83.41925 31981 ft 400 kts 285°
2026-05-04 02:27 35.46051 -83.45436 32195 ft 399 kts 285°
2026-05-04 02:28 35.46812 -83.48819 32396 ft 399 kts 285°
2026-05-04 02:28 35.47592 -83.52296 32563 ft 399 kts 285°
2026-05-04 02:28 35.48362 -83.55738 32734 ft 399 kts 285°
2026-05-04 02:28 35.49131 -83.59174 32880 ft 399 kts 285°
2026-05-04 02:29 35.49930 -83.62749 33027 ft 400 kts 286°
2026-05-04 02:29 35.50711 -83.66259 33201 ft 399 kts 285°
2026-05-04 02:29 35.51451 -83.69582 33341 ft 400 kts 285°
2026-05-04 02:29 35.52196 -83.72933 33452 ft 401 kts 285°
2026-05-04 02:30 35.52977 -83.76454 33600 ft 401 kts 285°
2026-05-04 02:30 35.53735 -83.79877 33744 ft 401 kts 285°
2026-05-04 02:30 35.54513 -83.83385 33881 ft 402 kts 285°
2026-05-04 02:30 35.55285 -83.86876 34015 ft 402 kts 285°
2026-05-04 02:31 35.56803 -83.93752 34085 ft 401 kts 285°
2026-05-04 02:31 35.58335 -84.00727 34097 ft 401 kts 285°
2026-05-04 02:32 35.59888 -84.07809 34093 ft 401 kts 285°
2026-05-04 02:32 35.61407 -84.14762 34095 ft 401 kts 285°
2026-05-04 02:33 35.62883 -84.21532 34085 ft 401 kts 286°
2026-05-04 02:33 35.64415 -84.28585 34083 ft 401 kts 286°
2026-05-04 02:34 35.65893 -84.35414 34080 ft 400 kts 286°
2026-05-04 02:34 35.67411 -84.42437 34086 ft 401 kts 286°
2026-05-04 02:35 35.68891 -84.49323 34084 ft 400 kts 287°
2026-05-04 02:35 35.70375 -84.56225 34080 ft 400 kts 287°
2026-05-04 02:36 35.71843 -84.63080 34085 ft 400 kts 287°
2026-05-04 02:36 35.73294 -84.69883 34082 ft 399 kts 286°
2026-05-04 02:37 35.74717 -84.76584 34079 ft 399 kts 286°
2026-05-04 02:37 35.76180 -84.83477 34076 ft 398 kts 287°
2026-05-04 02:38 35.77598 -84.90187 34083 ft 396 kts 287°
2026-05-04 02:38 35.79036 -84.97001 34079 ft 397 kts 286°
2026-05-04 02:39 35.80441 -85.03691 34086 ft 397 kts 287°
2026-05-04 02:39 35.81865 -85.10489 34085 ft 397 kts 287°
2026-05-04 02:40 35.83298 -85.17352 34092 ft 396 kts 287°
2026-05-04 02:40 35.84715 -85.24164 34094 ft 396 kts 287°
2026-05-04 02:41 35.85475 -85.31072 34091 ft 401 kts 275°
2026-05-04 02:41 35.85544 -85.38271 34090 ft 400 kts 275°
2026-05-04 02:42 35.85602 -85.45541 34090 ft 399 kts 275°
2026-05-04 02:42 35.85662 -85.52583 34084 ft 399 kts 275°
2026-05-04 02:43 35.85718 -85.59556 34086 ft 398 kts 275°
2026-05-04 02:43 35.85774 -85.66505 34079 ft 397 kts 275°
2026-05-04 02:44 35.85817 -85.72253 34079 ft 399 kts 275°
2026-05-04 02:44 35.85877 -85.80695 34081 ft 399 kts 275°
2026-05-04 02:45 35.85922 -85.87700 34076 ft 398 kts 275°
2026-05-04 02:45 35.85964 -85.94784 34078 ft 399 kts 275°
2026-05-04 02:46 35.85999 -86.02013 34072 ft 398 kts 275°
2026-05-04 02:46 35.86032 -86.08923 34073 ft 397 kts 275°
2026-05-04 02:47 35.86059 -86.15866 34066 ft 397 kts 275°
2026-05-04 02:47 35.86085 -86.22837 34056 ft 397 kts 275°
2026-05-04 02:48 35.86104 -86.30012 34074 ft 398 kts 275°
2026-05-04 02:48 35.86121 -86.37070 34064 ft 397 kts 275°
2026-05-04 02:49 35.86133 -86.44091 34072 ft 397 kts 275°
2026-05-04 02:49 35.86140 -86.51313 34070 ft 398 kts 275°
2026-05-04 02:50 35.86144 -86.58358 34067 ft 397 kts 275°
2026-05-04 02:50 35.86144 -86.65304 34071 ft 397 kts 275°
2026-05-04 02:51 35.86140 -86.72174 34071 ft 398 kts 275°
2026-05-04 02:51 35.86130 -86.79291 34057 ft 398 kts 275°
2026-05-04 02:52 35.86115 -86.86569 34055 ft 398 kts 275°
2026-05-04 02:52 35.86100 -86.93766 34053 ft 398 kts 275°
2026-05-04 02:53 35.86079 -87.01002 34048 ft 398 kts 275°
2026-05-04 02:53 35.86053 -87.08096 34053 ft 398 kts 275°
2026-05-04 02:54 35.86023 -87.15241 34060 ft 398 kts 275°
2026-05-04 02:54 35.85987 -87.22377 34064 ft 399 kts 275°
2026-05-04 02:55 35.85928 -87.33107 34046 ft 398 kts 275°
2026-05-04 02:56 35.85883 -87.40508 34040 ft 399 kts 275°
2026-05-04 02:56 35.85832 -87.47812 34049 ft 399 kts 275°
2026-05-04 02:57 35.85778 -87.54865 34037 ft 399 kts 274°
2026-05-04 02:57 35.85721 -87.61989 34037 ft 399 kts 275°